Weather Roundup
Issued by NWS Springfield, MO

Home | Current Version | Previous Version | Text Only | Print | Product List | Glossary On
Versions: 1 2 3 4 5 6 7 8 9 10 11 12 13 14 15 16 17 18 19 20 21 22 23 24 25 26 27 28 29 30 31 32 33 34 35 36 37 38 39 40 41 42 43 44 45 46 47 48 49 50
000
NZUS99 KSGF 271007
HRRSGF

HOURLY WEATHER
NATIONAL WEATHER SERVICE SPRINGFIELD MO
500 AM CDT SAT MAY 27 2017

......SGF CWA......

CITY           SKY/WX    TMP DP  RH WIND       PRES   REMARKS
SPRINGFIELD    CLEAR     69  68  96 SE7       29.81S FOG
JOPLIN         MOCLDY    75  71  87 SE7       29.79S
WEST PLAINS    CLOUDY    71  70  96 S5        29.82F
ROLLA          FOG       61  61 100 CALM      29.84S VSB 1/4
OSAGE BEACH    MOCLDY    65  64  97 NE3       29.84S FOG
BRANSON        CLOUDY    64  59  82 CALM      29.85R

......SURROUNDING SGF CWA......

CITY           SKY/WX    TMP DP  RH WIND       PRES   REMARKS
CHANUTE        CLEAR     68  65  90 E7        29.77F
PARSONS        CLEAR     70  66  87 E6        29.76F
COFFEYVILLE    CLEAR     69  69 100 E3        29.76R
EMPORIA        CLEAR     64  63  96 E8        29.77F
GROVE OK       CLEAR     72  72 100 CALM      29.79S FOG
ROGERS AR      CLOUDY    73  69  87 E3        29.84S
SILOAM SPRINGS CLOUDY    73  68  83 S5        29.81R
HARRISON AR    CLOUDY    68  65  90 SE9       29.85F
NEAR YELLVILLE CLOUDY    64  61  88 SW5       29.79F

......KANSAS AND MISSOURI......

CITY           SKY/WX    TMP DP  RH WIND       PRES   REMARKS
KANSAS CTY INT CLEAR     69  64  84 E9        29.82F
DOWNTOWN KC    CLEAR     67  64  90 E6        29.81F
COLUMBIA       CLEAR     67  66  97 E6        29.85S
SEDALIA        CLEAR     66  66 100 E3        29.85S
ST JOSEPH      CLOUDY    62  61  96 N3        29.82F
ST LOUIS       PTCLDY    71  65  81 N6        29.85S
SPIRIT OF STL  CLOUDY    67  67 100 N3        29.84S
KIRKSVILLE     FOG       57  57 100 CALM      29.88S VSB 1
WICHITA        CLEAR     67  64  90 SE8       29.76R
TOPEKA         CLEAR     64  64 100 E3        29.78F
OLATHE         CLEAR     65  65 100 E7        29.82F

......TENNESSEE......

CITY           SKY/WX    TMP DP  RH WIND       PRES   REMARKS
MEMPHIS        PTCLDY    76  70  82 SW7       29.89R
NASHVILLE      MOCLDY    70  62  76 CALM      29.91S

......ARKANSAS.......

CITY           SKY/WX    TMP DP  RH WIND       PRES   REMARKS
FAYETTEVILLE   CLOUDY    75  73  93 S7        29.82S
FT SMITH       CLOUDY    80  71  74 SW3       29.79S
LITTLE ROCK    CLOUDY    75  74  96 S13       29.85S

......OKLAHOMA.......

CITY           SKY/WX    TMP DP  RH WIND       PRES   REMARKS
TULSA          CLEAR     70  69  97 S3        29.73F
PONCA CITY     CLEAR     68  64  87 E6        29.74F
MCALESTER      MOCLDY    78  73  84 S6        29.80S
OKLAHOMA CITY  CLEAR     69  68  96 SE7       29.75F

......IOWA............

CITY           SKY/WX    TMP DP  RH WIND       PRES   REMARKS
DES MOINES     CLOUDY    62  60  93 E5        29.87F
QUAD CITIES    FOG       58  56  93 CALM      29.88R VSB 1/4

......ILLINOIS........

CITY           SKY/WX    TMP DP  RH WIND       PRES   REMARKS
QUINCY         CLEAR     59  58  96 CALM      29.87S FOG
CHICAGO        CLOUDY    52  50  93 N6        29.87S




USA.gov is the U.S. government's official web portal to all federal, state and local government web resources and services.